Voltar ao catálogo

STARLINK-11389

AtivoComunicaçõesVLEO
NORAD 62091·PAYLOAD·🇺🇸 United States

Lançado Nov 25, 2024 de Cape Canaveral Space Force Station

Loading…

Próximas Passagens (próximas 24 horas)

TLE

AtualizadoSource: CelesTrak SupGP

Época: Sep 14, 2026, 20:42 UTC

1 62091C 24220D   26257.86298611 -.00004185  00000+0 -32482-4 0  2570
2 62091  43.0003 342.9495 0001658 284.1646  72.7642 15.70856288    16

Acompanhe STARLINK-11389 em tempo real com AllMySat

Download on the App Store